Regional Weather Roundup
Issued by NWS Albany, NY

Home | Current Version | Previous Version | Text Only | Print | Product List | Glossary On
Versions: 1 2 3 4 5 6 7 8 9 10 11 12 13 14 15 16 17 18 19 20 21 22 23 24 25 26 27 28 29 30 31 32 33 34 35 36 37 38 39 40 41 42 43 44 45 46
000
ASUS41 KALY 281610
RWRALY

NEW YORK STATE HOURLY WEATHER ROUNDUP
NATIONAL WEATHER SERVICE ALBANY NY
1100 AM EST WED JAN 28 2015

NOTE: "FAIR" INDICATES FEW OR NO CLOUDS BELOW 12,000 FEET WITH NO
SIGNIFICANT WEATHER AND/OR NO OBSTRUCTIONS TO VISIBILITY.

NYZ032-033-038>043-046>054-057>066-NYZ062>081-281700-
EAST


CITY           SKY/WX    TMP DP  RH WIND       PRES   REMARKS
ALBANY         MOSUNNY   15  -1  49 N16       30.13R WCI  -1
GLENS FALLS    SUNNY     13   4  67 NE8       30.13R WCI   2
POUGHKEEPSIE   MOSUNNY   22   2  42 N10       30.06R WCI  11
NEWBURGH       SUNNY     21   9  58 NW9       30.04R WCI  11
MONTGOMERY     SUNNY     25   5  42 NW12      30.03R WCI  14
WHITE PLAINS   MOSUNNY   22   5  48 NW12      30.01R WCI  10
ISLIP          PTSUNNY   22   8  55 N21G28    30.01R WCI   6
NEW YORK CITY  MOSUNNY   24   6  46 N12       30.06R WCI  13
CENTRAL PARK   SUNNY     24   4  42 NW9       30.07R WCI  14
$$

NYZ005>009-017-018-044>046-055-056-281700-
CENTRAL


CITY           SKY/WX    TMP DP  RH WIND       PRES   REMARKS
FULTON         MIX PCPN  17   3  54 NW12      30.24R WCI   4
SYRACUSE       MOSUNNY   13   3  64 W7        30.23S WCI   3
ROME           MIX PCPN  11  -3  53 NW8       30.23R WCI  -1
ELMIRA         SUNNY     20   7  57 VRB5      30.21R WCI  13
BINGHAMTON     SUNNY     15   3  59 NW16G31   30.09R WCI  -1
MONTICELLO     SUNNY     18   5  57 NW17G25   30.03R WCI   2
$$

NYZ026>034-041>043-281700-
NORTH


CITY           SKY/WX    TMP DP  RH WIND       PRES   REMARKS
WATERTOWN        N/A    N/A N/A N/A MISG      30.25S
FORT DRUM      NOT AVBL
MASSENA        SUNNY      8  -9  45 SW8       30.24R WCI  -4
SARANAC LAKE   SUNNY      8  -7  50 VRB5      30.04R WCI   0
PLATTSBURGH    SUNNY     15  -5  40 N15       30.16S WCI   0
$$

NYZ001>004-010>016-019>021-281700-
WEST


CITY           SKY/WX    TMP DP  RH WIND       PRES   REMARKS
NIAGARA FALLS  MOSUNNY   19   9  65 W5        30.31R WCI  12
BUFFALO        MOSUNNY   16   8  71 SW9       30.31R WCI   4
DUNKIRK        CLOUDY    17  13  84 SW12      30.33R WCI   4
JAMESTOWN      SUNNY     10   5  79 NE3       30.23R
WELLSVILLE     SUNNY     15   3  59 N3        30.17R
ROCHESTER      SUNNY     21   9  59 W6        30.28R WCI  13
PENN YAN       SUNNY     20   7  57 NW10G22   30.22R HAZE    WCI   9
$$

             KEY
       WCI = WIND CHILL INDEX
       VSB = VISIBILITY
       HX  = HEAT INDEX
$$



USA.gov is the U.S. government's official web portal to all federal, state and local government web resources and services.